sat.trackr.live / text

‹ back to catalog

Z-SAT

NORAD 49399 · 2021-102E

PAYLOAD ACTIVE UNKNOWN

§ Identity

Operator
Country
JPN
Launch date
2021-11-09
Launch site
KSCUT
Launch vehicle
Mass (kg)
RCS (m²)

External: N2YO · Heavens-Above · Gunter

§ Orbital elements

Epoch: 2026-09-20T22:33:41.209056Z

Period
94.81 min
Inclination
97.3270°
Eccentricity
0.0014493
Mean motion
15.18880308 rev/d
Perigee alt
499.2 km
Apogee alt
519.2 km
Semi-major
6,887.4 km
B*
6.7715e-5
RAAN
296.3615°
Arg perigee
273.2904°
Mean anomaly
86.6673°
Rev number
26,797

§ Raw data

Z-SAT1 49399U 21102E   26263.94006029  .00001348  00000+0  67715-4 0  99942 49399  97.3270 296.3615 0014493 273.2904  86.6673 15.18880308267973

JSON: /api/v1/satellites/49399 · /tle

For live sub-satellite position, see the globe view (requires WebGL).

§ Visibility from observer

Set your observer location to see the next 7 days of passes ≥ 10°. The values pass through the URL so the page stays shareable.

No JS? Fill the form by hand. The geolocation button needs JavaScript.

§ Radio — SatNOGS DB

ModeDescriptionDownlinkUplink
FSK AX.25 G3RUH Mode V - 9K6 GMSK 145.875 MHz
FSK AX.25 G3RUH Mode U/V (1k2/9k6) - BBS (inactive) 145.875 MHz 435.480 MHz
CW Mode V - CW Beacon (inactive) 145.875 MHz

3 transmitters · refreshed weekly from db.satnogs.org